DW6996 Weather Reports


Display with metric or nautical units.
time (UTC)temp
F
wind
direction
speed
MPH
gust
MPH
rain 1hr
in
rain 24hr
in
rain mn
in
humidity
%
barometer
mb
20260903165455 92 164 0.0 7.0 0.00 0.00 0.00 44 1011.8
20260903164950 92 159 0.0 7.0 0.00 0.00 0.00 44 1011.7
20260903164450 92 148 0.0 0.0 0.00 0.00 0.00 45 1011.8
20260903164223 91 178 0.0 0.0 0.00 0.00 0.00 45 1011.8
20260903163451 91 187 0.0 0.0 0.00 0.00 0.00 45 1011.9
20260903162951 90 188 0.0 5.0 0.00 0.00 0.00 45 1011.9
20260903162450 90 155 0.0 5.0 0.00 0.00 0.00 46 1011.9
20260903162206 90 195 0.0 2.0 0.00 0.00 0.00 47 1011.9
20260903161445 90 169 0.0 2.0 0.00 0.00 0.00 47 1012.0
20260903161206 89 119 0.0 4.0 0.00 0.00 0.00 48 1011.9
20260903160444 89 124 0.0 4.0 0.00 0.00 0.00 48 1012.0
20260903155941 89 134 0.0 3.0 0.00 0.00 0.00 48 1012.1
20260903155439 89 155 0.0 6.0 0.00 0.00 0.00 49 1012.1
20260903154937 89 167 0.0 6.0 0.00 0.00 0.00 49 1012.0
20260903154437 89 193 0.0 1.0 0.00 0.00 0.00 49 1012.0
20260903153937 88 165 0.0 1.0 0.00 0.00 0.00 49 1012.0
20260903153437 88 151 0.0 4.0 0.00 0.00 0.00 50 1012.0
20260903152936 88 140 0.0 4.0 0.00 0.00 0.00 51 1012.0
20260903152650 88 166 0.0 1.0 0.00 0.00 0.00 52 1012.0
20260903151932 88 178 0.0 0.0 0.00 0.00 0.00 52 1012.0
20260903151656 87 209 0.0 0.0 0.00 0.00 0.00 52 1012.1
20260903150932 87 196 0.0 0.0 0.00 0.00 0.00 53 1012.1
20260903150430 87 147 0.0 0.0 0.00 0.00 0.00 54 1012.1
20260903145931 86 232 0.0 3.0 0.00 0.00 0.00 54 1012.1
20260903145650 86 233 0.0 3.0 0.00 0.00 0.00 54 1012.1
20260903144930 86 210 0.0 1.0 0.00 0.00 0.00 55 1012.1
20260903144431 86 205 0.0 1.0 0.00 0.00 0.00 56 1012.1
20260903143930 85 200 0.0 0.0 0.00 0.00 0.00 57 1012.1
20260903143431 85 198 0.0 0.0 0.00 0.00 0.00 57 1012.0
20260903142932 85 207 0.0 0.0 0.00 0.00 0.00 57 1012.0
20260903142430 84 202 0.0 0.0 0.00 0.00 0.00 58 1012.0
20260903141931 84 255 0.0 3.0 0.00 0.00 0.00 59 1012.0
20260903141431 84 255 0.0 3.0 0.00 0.00 0.00 59 1011.9
20260903141414 83 240 0.0 0.0 0.00 0.00 0.00 59 1011.8
20260903140431 83 240 0.0 0.0 0.00 0.00 0.00 59 1011.7
20260903135929 83 230 0.0 0.0 0.00 0.00 0.00 59 1011.7
20260903135655 83 229 0.0 0.0 0.00 0.00 0.00 59 1011.7
20260903134929 83 229 0.0 0.0 0.00 0.00 0.00 59 1011.6
20260903134429 83 218 0.0 0.0 0.00 0.00 0.00 59 1011.5
20260903133930 83 218 0.0 0.0 0.00 0.00 0.00 59 1011.5
20260903133429 83 218 0.0 0.0 0.00 0.00 0.00 59 1011.4
20260903132929 83 218 0.0 0.0 0.00 0.00 0.00 59 1011.4
20260903132429 83 218 0.0 0.0 0.00 0.00 0.00 59 1011.3
20260903131929 83 218 0.0 0.0 0.00 0.00 0.00 58 1011.2
20260903131429 83 218 0.0 0.0 0.00 0.00 0.00 58 1011.2
20260903130929 83 212 0.0 0.0 0.00 0.00 0.00 58 1011.2
20260903130435 84 196 0.0 0.0 0.00 0.00 0.00 57 1011.2
20260903130431 83 196 0.0 0.0 0.00 0.00 0.00 57 1011.2
20260903125428 84 196 0.0 0.0 0.00 0.00 0.00 56 1011.2
20260903124929 84 196 0.0 0.0 0.00 0.00 0.00 56 1011.1
20260903124430 84 196 0.0 0.0 0.00 0.00 0.00 56 1011.0
20260903123926 84 196 0.0 0.0 0.00 0.00 0.00 56 1011.0
20260903123419 84 196 0.0 0.0 0.00 0.00 0.00 56 1010.9
20260903122914 84 196 0.0 0.0 0.00 0.00 0.00 56 1010.9
20260903122639 84 196 0.0 1.0 0.00 0.00 0.00 55 1010.8
20260903122406 84 224 0.0 1.0 0.00 0.00 0.00 55 1010.8
20260903121640 84 214 0.0 0.0 0.00 0.00 0.00 55 1010.7
20260903120914 85 245 0.0 1.0 0.00 0.00 0.00 55 1010.7
20260903120642 85 248 0.0 1.0 0.00 0.00 0.00 54 1010.6
20260903115912 85 213 0.0 1.0 0.00 0.00 0.00 54 1010.6
20260903115410 85 218 0.0 1.0 0.00 0.00 0.00 54 1010.6
20260903114909 85 219 0.0 1.0 0.00 0.00 0.00 54 1010.4
20260903114628 85 219 0.0 0.0 0.00 0.00 0.00 54 1010.4
20260903113904 85 220 0.0 0.0 0.00 0.00 0.00 54 1010.3
20260903113401 85 227 0.0 0.0 0.00 0.00 0.00 54 1010.3
20260903112901 85 255 0.0 0.0 0.00 0.00 0.00 53 1010.3
20260903112402 85 242 0.0 2.0 0.00 0.00 0.00 53 1010.3
20260903111901 85 240 0.0 2.0 0.00 0.00 0.00 53 1010.3
20260903111618 85 247 0.0 1.0 0.00 0.00 0.00 53 1010.3
20260903110901 85 227 0.0 1.0 0.00 0.00 0.00 52 1010.3
20260903110628 85 234 0.0 1.0 0.00 0.00 0.00 52 1010.3
20260903105900 85 219 0.0 1.0 0.00 0.00 0.00 51 1010.3
20260903105402 85 223 0.0 0.0 0.00 0.00 0.00 50 1010.3
20260903104900 86 229 0.0 1.0 0.00 0.00 0.00 49 1010.3
20260903104401 86 230 0.0 1.0 0.00 0.00 0.00 49 1010.3
20260903103901 86 227 0.0 1.0 0.00 0.00 0.00 48 1010.3
20260903103628 86 236 0.0 1.0 0.00 0.00 0.00 48 1010.3
20260903102902 86 230 0.0 1.0 0.00 0.00 0.00 47 1010.3
20260903102401 86 231 0.0 2.0 0.00 0.00 0.00 46 1010.3
20260903101901 87 223 0.0 2.0 0.00 0.00 0.00 45 1010.2
20260903101401 87 231 0.0 1.0 0.00 0.00 0.00 44 1010.4
20260903100901 87 223 0.0 1.0 0.00 0.00 0.00 42 1010.4
20260903100401 87 224 0.0 0.0 0.00 0.00 0.00 41 1010.4
20260903095901 87 218 0.0 0.0 0.00 0.00 0.00 39 1010.6
20260903095401 87 220 0.0 0.0 0.00 0.00 0.00 36 1010.6
20260903094901 87 221 0.0 0.0 0.00 0.00 0.00 35 1010.6
20260903094402 88 221 0.0 0.0 0.00 0.00 0.00 34 1010.4
20260903093902 88 221 0.0 0.0 0.00 0.00 0.00 34 1010.4
20260903093401 88 267 0.0 0.0 0.00 0.00 0.00 32 1010.4
20260903093124 88 268 0.0 0.0 0.00 0.00 0.00 32 1010.4
20260903092401 88 268 0.0 0.0 0.00 0.00 0.00 32 1010.4
20260903092125 88 269 0.0 0.0 0.00 0.00 0.00 31 1010.4
20260903091833 87 254 0.0 0.0 0.00 0.00 0.00 30 1010.3
20260903091558 88 269 0.0 0.0 0.00 0.00 0.00 30 1010.4
20260903090401 87 240 0.0 0.0 0.00 0.00 0.00 29 1010.3
20260903085900 88 242 0.0 0.0 0.00 0.00 0.00 29 1010.3
20260903085621 88 242 0.0 0.0 0.00 0.00 0.00 29 1010.3
20260903084901 88 242 0.0 0.0 0.00 0.00 0.00 29 1010.3
20260903084402 88 242 0.0 0.0 0.00 0.00 0.00 30 1010.3
20260903084124 89 248 0.0 0.0 0.00 0.00 0.00 28 1010.3
20260903083854 89 248 0.0 0.0 0.00 0.00 0.00 25 1010.2
20260903082901 89 248 0.0 0.0 0.00 0.00 0.00 25 1010.2
20260903082402 89 248 0.0 0.0 0.00 0.00 0.00 25 1010.2
20260903081900 89 248 0.0 0.0 0.00 0.00 0.00 25 1010.2
20260903081401 89 248 0.0 0.0 0.00 0.00 0.00 25 1010.2
20260903080901 89 248 0.0 0.0 0.00 0.00 0.00 27 1010.1
20260903080401 89 248 0.0 0.0 0.00 0.00 0.00 27 1010.2
20260903075901 89 248 0.0 0.0 0.00 0.00 0.00 27 1010.1
20260903075402 90 248 0.0 0.0 0.00 0.00 0.00 27 1010.1
20260903074901 90 248 0.0 0.0 0.00 0.00 0.00 27 1010.1
20260903074401 90 248 0.0 0.0 0.00 0.00 0.00 27 1010.2
20260903073901 90 248 0.0 0.0 0.00 0.00 0.00 27 1010.1
20260903073401 90 248 0.0 0.0 0.00 0.00 0.00 27 1010.1
20260903073121 90 248 0.0 0.0 0.00 0.00 0.00 27 1010.1
20260903072401 91 248 0.0 0.0 0.00 0.00 0.00 26 1010.1
20260903071901 91 248 0.0 0.0 0.00 0.00 0.00 27 1010.1
20260903071401 91 248 0.0 0.0 0.00 0.00 0.00 27 1010.1
20260903070901 91 248 0.0 0.0 0.00 0.00 0.00 26 1010.0
20260903070401 91 248 0.0 0.0 0.00 0.00 0.00 26 1009.9
20260903065901 92 249 0.0 0.0 0.00 0.00 0.00 26 1009.9
20260903065401 92 249 0.0 0.0 0.00 0.00 0.00 26 1009.8
20260903064901 92 249 0.0 0.0 0.00 0.01 0.00 24 1009.9
20260903064400 92 247 0.0 0.0 0.00 0.07 0.00 26 1009.8
20260903063901 92 246 0.0 0.0 0.00 0.07 0.00 26 1009.9
20260903063400 92 247 0.0 0.0 0.00 0.07 0.00 26 1009.8
20260903062901 92 247 0.0 0.0 0.00 0.07 0.00 26 1009.8
20260903062400 92 247 0.0 0.0 0.00 0.07 0.00 26 1009.9
20260903062122 92 223 0.0 0.0 0.00 0.07 0.00 25 1009.9
20260903061400 92 223 0.0 0.0 0.00 0.07 0.00 26 1009.9
20260903060901 92 221 0.0 0.0 0.00 0.07 0.00 27 1009.9
20260903060401 93 222 0.0 0.0 0.00 0.07 0.00 28 1009.9
20260903055901 93 222 0.0 0.0 0.00 0.07 0.00 28 1009.8
20260903055401 93 221 0.0 0.0 0.00 0.07 0.00 28 1009.8
20260903054902 93 221 0.0 0.0 0.00 0.07 0.00 29 1009.8
20260903054401 93 221 0.0 0.0 0.00 0.07 0.00 29 1009.7
20260903053901 93 221 0.0 0.0 0.00 0.07 0.00 30 1009.7
20260903053355 93 223 0.0 0.0 0.00 0.07 0.00 31 1009.7
20260903052850 93 223 0.0 0.0 0.00 0.07 0.00 31 1009.8
20260903052351 93 222 0.0 0.0 0.00 0.07 0.00 31 1009.8
20260903051849 94 222 0.0 0.0 0.00 0.07 0.00 31 1009.8
20260903051347 94 223 0.0 0.0 0.00 0.07 0.00 31 1009.8
20260903050844 94 221 0.0 0.0 0.00 0.07 0.00 31 1009.8
20260903050343 94 222 0.0 0.0 0.00 0.07 0.00 31 1009.7
20260903045842 94 206 0.0 0.0 0.00 0.07 0.00 31 1009.7
20260903045342 94 248 0.0 1.0 0.00 0.07 0.00 32 1009.7
20260903044841 94 225 0.0 3.0 0.00 0.07 0.00 32 1009.6
20260903044338 94 223 0.0 3.0 0.00 0.07 0.00 33 1009.6
20260903043838 94 209 0.0 2.0 0.00 0.07 0.00 33 1009.7
20260903043338 94 228 0.0 0.0 0.00 0.07 0.00 32 1009.7
20260903042839 94 216 0.0 0.0 0.00 0.07 0.00 31 1009.7
20260903042340 95 213 0.0 0.0 0.00 0.07 0.00 31 1009.7
20260903041836 95 215 0.0 1.0 0.00 0.07 0.00 30 1009.7
20260903041335 95 215 0.0 1.0 0.00 0.07 0.00 29 1009.6
20260903040834 95 240 0.0 0.0 0.00 0.07 0.00 29 1009.6
20260903040334 95 240 0.0 0.0 0.00 0.07 0.00 29 1009.6
20260903040055 95 240 0.0 0.0 0.00 0.07 0.00 29 1009.4
20260903035330 96 234 0.0 0.0 0.00 0.07 0.00 28 1009.5
20260903034830 96 233 0.0 0.0 0.00 0.07 0.00 28 1009.4
20260903034326 96 231 0.0 0.0 0.00 0.07 0.00 28 1009.4
20260903033820 96 235 0.0 0.0 0.00 0.07 0.00 27 1009.4
20260903033313 96 235 0.0 0.0 0.00 0.07 0.00 27 1009.4
20260903032808 96 242 0.0 0.0 0.00 0.07 0.00 27 1009.3
20260903032305 96 228 0.0 1.0 0.00 0.07 0.00 27 1009.3
20260903031802 96 242 0.0 1.0 0.00 0.07 0.00 27 1009.3
20260903031301 96 229 0.0 4.0 0.00 0.07 0.00 28 1009.3
20260903030801 96 220 0.0 4.0 0.00 0.07 0.00 28 1009.2
20260903030302 96 232 0.0 1.0 0.00 0.07 0.00 29 1009.2
20260903025801 96 227 0.0 1.0 0.00 0.07 0.00 30 1009.1
20260903025305 96 221 0.0 0.0 0.00 0.07 0.00 30 1009.1
20260903024801 96 213 0.0 0.0 0.00 0.07 0.00 30 1009.0
20260903024525 97 231 0.0 0.0 0.00 0.07 0.00 30 1008.9
20260903023801 97 227 0.0 1.0 0.00 0.07 0.00 30 1009.0
20260903023301 97 240 0.0 1.0 0.00 0.07 0.00 30 1008.9
20260903022801 97 213 0.0 0.0 0.00 0.07 0.00 29 1008.9
20260903022305 97 223 0.0 2.0 0.00 0.07 0.00 29 1008.8
20260903021801 97 231 0.0 3.0 0.00 0.07 0.00 29 1008.7
20260903021302 97 246 0.0 3.0 0.00 0.07 0.00 28 1008.7
20260903020801 97 238 0.0 2.0 0.00 0.07 0.00 28 1008.8
20260903020301 97 249 0.0 0.0 0.00 0.07 0.00 28 1008.8
20260903020023 97 236 0.0 0.0 0.00 0.07 0.00 28 1008.7
20260903015305 98 226 0.0 0.0 0.00 0.07 0.00 28 1008.7
20260903014801 98 240 0.0 0.0 0.00 0.07 0.00 28 1008.6
20260903014302 98 232 0.0 1.0 0.00 0.07 0.00 27 1008.6
20260903013802 98 252 0.0 3.0 0.00 0.07 0.00 27 1008.5
20260903013520 98 223 0.0 3.0 0.00 0.07 0.00 28 1008.6
20260903012801 98 211 0.0 1.0 0.00 0.07 0.00 28 1008.5
20260903012306 98 207 0.0 6.0 0.00 0.07 0.00 27 1008.6
20260903011801 99 195 0.0 6.0 0.00 0.07 0.00 27 1008.6
20260903011301 99 243 0.0 10.0 0.00 0.07 0.00 27 1008.6
20260903011023 99 238 0.0 10.0 0.00 0.07 0.00 26 1008.6
20260903010301 99 237 0.0 4.0 0.00 0.07 0.00 27 1008.7
20260903005801 99 234 0.0 4.0 0.00 0.07 0.00 27 1008.6
20260903005306 99 215 0.0 5.0 0.00 0.07 0.00 27 1008.5
20260903004801 100 244 0.0 5.0 0.00 0.07 0.00 27 1008.5
20260903004301 100 242 0.0 5.0 0.00 0.07 0.00 26 1008.6
20260903004027 100 209 0.0 5.0 0.00 0.07 0.00 27 1008.5
20260903003301 100 225 0.0 4.0 0.00 0.07 0.00 27 1008.5
20260903002801 100 238 0.0 9.0 0.00 0.07 0.00 27 1008.5
20260903002301 100 276 0.0 9.0 0.00 0.07 0.00 27 1008.6
20260903002027 100 261 0.0 2.0 0.00 0.07 0.00 26 1008.5
20260903001301 100 242 0.0 3.0 0.00 0.07 0.00 27 1008.6
20260903000801 100 234 0.0 5.0 0.00 0.07 0.00 26 1008.7
20260903000531 101 257 0.0 5.0 0.00 0.07 0.00 26 1008.7
20260902235801 101 233 1.0 9.0 0.00 0.07 0.00 27 1008.8
20260902235305 101 249 1.0 9.0 0.00 0.07 0.00 27 1008.8
20260902234800 101 219 0.0 7.0 0.00 0.07 0.00 27 1008.8
20260902234301 101 217 0.0 7.0 0.00 0.07 0.00 27 1008.9
20260902234026 101 219 0.0 6.0 0.00 0.07 0.00 27 1009.0
20260902233522 101 254 0.0 10.0 0.00 0.07 0.00 26 1009.0
20260902232801 101 217 0.0 10.0 0.00 0.07 0.00 26 1009.0
20260902232301 101 199 0.0 6.0 0.00 0.07 0.00 27 1009.0
20260902231800 101 217 0.0 6.0 0.00 0.07 0.00 27 1009.1
20260902231301 101 250 0.0 4.0 0.00 0.07 0.00 27 1009.2
20260902230801 101 226 1.0 11.0 0.00 0.07 0.00 27 1009.1
20260902230753 101 194 1.0 11.0 0.00 0.07 0.00 27 1009.2
20260902225800 101 192 0.0 9.0 0.00 0.07 0.00 27 1009.3
20260902225301 101 191 1.0 10.0 0.00 0.07 0.00 27 1009.4
20260902224801 101 221 1.0 10.0 0.00 0.07 0.00 27 1009.5
20260902224526 101 215 1.0 6.0 0.00 0.07 0.00 27 1009.5
20260902223800 101 215 3.0 15.0 0.00 0.07 0.00 27 1009.6
20260902223301 101 215 3.0 15.0 0.00 0.07 0.00 27 1009.7
20260902223025 101 245 1.0 14.0 0.00 0.07 0.00 26 1009.7
20260902222301 102 252 1.0 8.0 0.00 0.07 0.00 26 1009.7
20260902221801 102 250 1.0 8.0 0.00 0.07 0.00 26 1009.8
20260902221301 102 255 0.0 7.0 0.00 0.07 0.00 26 1009.8
20260902220801 102 190 1.0 11.0 0.00 0.07 0.00 26 1009.8
20260902220301 102 239 2.0 11.0 0.00 0.07 0.00 26 1009.9
20260902215802 102 215 0.0 7.0 0.00 0.07 0.00 25 1010.0
20260902215300 102 259 0.0 0.0 0.00 0.07 0.00 26 1010.1
20260902214801 102 200 0.0 1.0 0.00 0.07 0.00 26 1010.1
20260902214301 102 189 1.0 10.0 0.00 0.07 0.00 26 1010.2
20260902213801 102 182 1.0 10.0 0.00 0.07 0.00 26 1010.3
20260902213301 102 209 0.0 3.0 0.00 0.07 0.00 26 1010.3
20260902212801 101 241 0.0 3.0 0.00 0.07 0.00 26 1010.3
20260902212305 102 263 0.0 3.0 0.00 0.07 0.00 25 1010.3
20260902211801 102 167 0.0 0.0 0.00 0.07 0.00 26 1010.3
20260902211301 102 196 0.0 7.0 0.00 0.07 0.00 27 1010.4
20260902210802 101 205 0.0 7.0 0.00 0.07 0.00 27 1010.6
20260902210742 101 210 0.0 3.0 0.00 0.07 0.00 28 1010.7
20260902205800 101 273 0.0 6.0 0.00 0.07 0.00 27 1010.8
20260902205301 101 227 1.0 6.0 0.00 0.07 0.00 27 1010.9
20260902204802 101 184 0.0 6.0 0.00 0.07 0.00 28 1011.0
20260902204521 101 211 1.0 7.0 0.00 0.07 0.00 28 1011.1
20260902204024 100 206 0.0 7.0 0.00 0.07 0.00 29 1011.1
20260902203301 100 238 0.0 10.0 0.00 0.07 0.00 29 1011.2
20260902202801 100 250 0.0 10.0 0.00 0.07 0.00 29 1011.2
20260902202524 100 230 0.0 0.0 0.00 0.07 0.00 29 1011.3
20260902202008 100 240 0.0 5.0 0.00 0.07 0.00 29 1011.6
20260902201953 100 221 0.0 7.0 0.00 0.07 0.00 29 1011.5
20260902201502 100 200 0.0 7.0 0.00 0.07 0.00 29 1011.5
20260902200301 100 203 0.0 1.0 0.00 0.07 0.00 29 1011.6
20260902195801 99 132 0.0 1.0 0.00 0.07 0.00 29 1011.7
20260902195531 100 156 0.0 7.0 0.00 0.07 0.00 28 1011.8
20260902194800 100 202 1.0 10.0 0.00 0.07 0.00 29 1011.9
20260902194301 100 231 1.0 10.0 0.00 0.07 0.00 28 1011.9
20260902193801 100 149 0.0 1.0 0.00 0.07 0.00 27 1012.0
20260902193300 99 198 0.0 1.0 0.00 0.07 0.00 29 1012.1
20260902192802 99 239 0.0 1.0 0.00 0.07 0.00 29 1012.1
20260902192300 99 197 0.0 6.0 0.00 0.07 0.00 30 1012.3
20260902191800 99 199 1.0 8.0 0.00 0.07 0.00 30 1012.4
20260902191527 99 166 1.0 8.0 0.00 0.07 0.00 31 1012.3
20260902190801 99 211 0.0 2.0 0.00 0.07 0.00 31 1012.4
20260902190524 98 173 0.0 3.0 0.00 0.07 0.00 33 1012.5
20260902185800 98 200 0.0 3.0 0.00 0.07 0.00 32 1012.5
20260902185301 98 184 0.0 3.0 0.00 0.07 0.00 33 1012.6
20260902184801 98 202 0.0 1.0 0.00 0.07 0.00 33 1012.6
20260902184301 98 170 0.0 1.0 0.00 0.07 0.00 34 1012.7
20260902183802 98 167 0.0 1.0 0.00 0.07 0.00 34 1012.8
20260902183302 98 263 0.0 4.0 0.00 0.07 0.00 35 1012.9
20260902183023 98 122 0.0 4.0 0.00 0.07 0.00 34 1012.9
20260902182301 97 229 0.0 0.0 0.00 0.07 0.00 37 1012.9
20260902181801 97 158 0.0 1.0 0.00 0.07 0.00 36 1013.0
20260902181301 97 159 0.0 2.0 0.00 0.07 0.00 37 1013.2
20260902180800 96 144 0.0 2.0 0.00 0.07 0.00 37 1013.2
20260902180301 96 160 0.0 0.0 0.00 0.07 0.00 37 1013.2
20260902175801 96 157 0.0 1.0 0.00 0.07 0.00 37 1013.2
20260902175301 96 157 0.0 7.0 0.00 0.07 0.00 37 1013.3
20260902174754 96 178 0.0 7.0 0.00 0.07 0.00 37 1013.4
20260902174509 96 161 0.0 3.0 0.00 0.07 0.00 38 1013.4
20260902173742 96 147 0.0 0.0 0.00 0.07 0.00 37 1013.3
20260902173458 95 176 0.0 2.0 0.00 0.07 0.00 38 1013.4
20260902172739 96 108 0.0 2.0 0.00 0.07 0.00 37 1013.4
20260902172239 96 167 0.0 0.0 0.00 0.07 0.00 38 1013.4
20260902171736 96 227 0.0 0.0 0.00 0.07 0.00 39 1013.4
20260902171236 95 319 0.0 0.0 0.00 0.07 0.00 40 1013.4
20260902170737 95 321 0.0 0.0 0.00 0.07 0.00 40 1013.4
20260902170502 94 316 0.0 0.0 0.00 0.07 0.00 41 1013.4